Terminal Aerodrome Forecast
Issued by NWS

Home | Current Version | Previous Version | Graphics & Text | Print | Product List | Glossary On
Versions: 1 2 3 4 5 6 7 8 9 10 11 12 13 14 15 16 17 18 19 20 21 22 23 24 25 26 27 28 29 30 31 32 33 34 35 36 37 38
000
FTUS45 KGGW 301500 AAA
TAFGDV
TAF AMD
KGDV 301536Z 3016/0112 07009KT 3SM HZ VCSH BKN100
     FM301900 29018KT P6SM VCTS BKN070CB
     FM010200 VRB05KT P6SM -TSRA OVC050CB
      AMD LTD TO CLD VIS AND WIND=

USA.gov is the U.S. government's official web portal to all federal, state and local government web resources and services.